FW5619 Weather Reports


Display with metric or nautical units.
time (UTC)temp
F
wind
direction
speed
MPH
gust
MPH
rain 1hr
in
rain 24hr
in
rain mn
in
humidity
%
barometer
mb
20260509135516 55 219 2.0 6.0 0.00 0.00 0.00 87 1014.5
20260509135015 55 219 3.0 5.0 0.00 0.00 0.00 86 1014.4
20260509134513 55 219 1.0 5.0 0.00 0.00 0.00 87 1014.5
20260509134013 55 219 2.0 5.0 0.00 0.00 0.00 87 1014.5
20260509133514 55 219 2.0 5.0 0.00 0.00 0.00 86 1014.6
20260509133013 55 219 2.0 3.0 0.00 0.00 0.00 86 1014.6
20260509132513 55 219 1.0 6.0 0.00 0.00 0.00 87 1014.6
20260509132013 55 219 3.0 6.0 0.00 0.00 0.00 87 1014.6
20260509131511 55 219 0.0 6.0 0.00 0.00 0.00 87 1014.6
20260509131010 55 219 2.0 6.0 0.00 0.00 0.00 87 1014.6
20260509130514 54 219 1.0 7.0 0.00 0.00 0.00 88 1014.5
20260509130030 54 219 4.0 9.0 0.00 0.00 0.00 88 1014.6
20260509125510 54 219 4.0 9.0 0.00 0.00 0.00 88 1014.6
20260509125008 54 219 5.0 8.0 0.00 0.00 0.00 88 1014.6
20260509124525 54 219 3.0 7.0 0.00 0.00 0.00 88 1014.6
20260509124009 54 219 3.0 7.0 0.00 0.00 0.00 88 1014.7
20260509123509 54 219 2.0 9.0 0.00 0.00 0.00 88 1014.8
20260509123011 54 219 3.0 10.0 0.00 0.00 0.00 87 1014.9
20260509122508 54 219 4.0 11.0 0.00 0.00 0.00 87 1014.9
20260509122008 54 219 7.0 11.0 0.00 0.00 0.00 87 1015.0
20260509121508 54 220 4.0 8.0 0.00 0.00 0.00 87 1014.9
20260509121008 54 220 3.0 8.0 0.00 0.00 0.00 87 1014.9
20260509120508 54 220 3.0 8.0 0.00 0.00 0.00 87 1014.9
20260509120013 54 221 4.0 8.0 0.00 0.00 0.00 88 1014.9
20260509115507 54 221 4.0 8.0 0.00 0.00 0.00 88 1014.9
20260509115009 54 221 4.0 8.0 0.00 0.00 0.00 88 1014.9
20260509114507 54 221 3.0 8.0 0.00 0.00 0.00 88 1014.9
20260509114007 54 221 1.0 6.0 0.00 0.00 0.00 88 1014.9
20260509113510 54 221 2.0 11.0 0.00 0.00 0.00 88 1014.9
20260509113007 54 221 6.0 11.0 0.00 0.00 0.00 88 1015.0
20260509112507 54 221 3.0 10.0 0.00 0.00 0.00 88 1014.9
20260509112007 54 222 4.0 11.0 0.00 0.00 0.00 88 1015.0
20260509111505 54 221 3.0 8.0 0.00 0.00 0.00 88 1014.9
20260509111006 54 223 2.0 7.0 0.00 0.00 0.00 88 1014.9
20260509110505 54 223 3.0 7.0 0.00 0.00 0.00 87 1014.7
20260509110006 54 225 3.0 10.0 0.00 0.00 0.00 86 1014.7
20260509105505 54 227 4.0 12.0 0.00 0.00 0.00 86 1014.7
20260509105007 54 206 4.0 15.0 0.00 0.00 0.00 85 1014.6
20260509104505 54 200 7.0 11.0 0.00 0.00 0.00 84 1014.7
20260509104004 54 205 5.0 10.0 0.00 0.00 0.00 84 1014.6
20260509103503 54 186 5.0 9.0 0.00 0.00 0.00 84 1014.6
20260509103003 54 185 4.0 9.0 0.00 0.00 0.00 85 1014.5
20260509102503 54 360 5.0 8.0 0.00 0.00 0.00 85 1014.5
20260509102002 54 360 3.0 8.0 0.00 0.00 0.00 85 1014.4
20260509101502 53 360 4.0 6.0 0.00 0.00 0.00 85 1014.4
20260509101001 53 185 3.0 6.0 0.00 0.00 0.00 85 1014.3
20260509100600 53 185 4.0 6.0 0.00 0.00 0.00 86 1014.3
20260509100100 53 185 3.0 6.0 0.00 0.00 0.00 86 1014.3
20260509095600 53 185 4.0 8.0 0.00 0.00 0.00 86 1014.3
20260509095101 53 360 4.0 8.0 0.00 0.00 0.00 86 1014.4
20260509094603 53 360 4.0 6.0 0.00 0.00 0.00 86 1014.3
20260509094058 53 360 2.0 5.0 0.00 0.00 0.00 86 1014.2
20260509093557 53 185 0.0 3.0 0.00 0.00 0.00 86 1014.3
20260509093058 53 185 0.0 0.0 0.00 0.00 0.00 86 1014.3
20260509092556 53 185 0.0 0.0 0.00 0.00 0.00 86 1014.2
20260509092056 53 185 0.0 0.0 0.00 0.00 0.00 86 1014.2
20260509091557 53 360 0.0 0.0 0.00 0.00 0.00 86 1014.2
20260509091056 53 185 0.0 2.0 0.00 0.00 0.00 86 1014.3
20260509090556 53 360 0.0 4.0 0.00 0.00 0.00 86 1014.3
20260509090101 53 185 1.0 5.0 0.00 0.00 0.00 87 1014.3
20260509085555 53 185 2.0 5.0 0.00 0.00 0.00 87 1014.2
20260509085055 52 360 1.0 3.0 0.00 0.00 0.00 88 1014.2
20260509084603 52 360 0.0 3.0 0.00 0.00 0.00 88 1014.2
20260509084055 53 185 0.0 6.0 0.00 0.00 0.00 88 1014.2
20260509083623 52 185 1.0 6.0 0.00 0.00 0.00 88 1014.4
20260509083053 52 360 0.0 0.0 0.00 0.00 0.00 88 1014.1
20260509082553 52 360 0.0 0.0 0.00 0.00 0.00 88 1014.0
20260509082052 52 185 0.0 0.0 0.00 0.00 0.00 88 1014.1
20260509081557 52 185 0.0 2.0 0.00 0.00 0.00 88 1014.2
20260509081052 52 185 0.0 2.0 0.00 0.00 0.00 88 1014.1
20260509080552 52 185 1.0 2.0 0.00 0.00 0.00 89 1014.2
20260509080057 52 360 0.0 4.0 0.00 0.00 0.00 89 1014.2
20260509075550 52 185 1.0 4.0 0.00 0.00 0.00 89 1014.3
20260509075053 52 185 0.0 3.0 0.00 0.00 0.00 89 1014.4
20260509074550 52 185 0.0 5.0 0.00 0.00 0.00 89 1014.4
20260509074049 52 360 1.0 5.0 0.00 0.00 0.00 89 1014.4
20260509073549 52 185 3.0 5.0 0.00 0.00 0.00 90 1014.4
20260509073049 52 185 2.0 4.0 0.00 0.00 0.00 90 1014.4
20260509072549 52 185 2.0 5.0 0.00 0.00 0.00 90 1014.3
20260509072050 52 185 3.0 6.0 0.00 0.00 0.00 90 1014.3
20260509071551 53 360 3.0 8.0 0.00 0.00 0.00 90 1014.3
20260509071049 53 185 4.0 8.0 0.00 0.00 0.00 90 1014.4
20260509070549 53 360 2.0 4.0 0.00 0.00 0.00 90 1014.3
20260509070051 53 208 2.0 4.0 0.00 0.00 0.00 90 1014.3
20260509065549 53 207 2.0 4.0 0.00 0.00 0.00 90 1014.1
20260509065047 53 208 0.0 5.0 0.00 0.00 0.00 89 1014.2
20260509064556 53 360 2.0 5.0 0.00 0.00 0.00 89 1014.1
20260509064046 53 360 1.0 5.0 0.00 0.00 0.00 89 1014.3
20260509063546 53 360 1.0 5.0 0.00 0.00 0.00 89 1014.5
20260509063044 53 360 0.0 0.0 0.00 0.00 0.00 89 1014.6
20260509062547 53 360 0.0 1.0 0.00 0.00 0.00 89 1014.7
20260509062044 53 360 0.0 2.0 0.00 0.00 0.00 90 1014.8
20260509061551 53 360 0.0 3.0 0.00 0.00 0.00 90 1014.8
20260509061042 52 360 1.0 3.0 0.00 0.00 0.00 90 1014.9
20260509060542 52 360 0.0 0.0 0.00 0.00 0.00 90 1015.0
20260509060043 52 360 0.0 0.0 0.00 0.00 0.00 89 1015.0
20260509055543 52 360 0.0 3.0 0.00 0.00 0.00 89 1015.0
20260509055041 52 360 0.0 4.0 0.00 0.00 0.00 89 1015.0
20260509054547 52 360 1.0 4.0 0.00 0.00 0.00 89 1015.1
20260509054041 52 360 2.0 4.0 0.00 0.00 0.00 89 1015.3
20260509053541 52 207 0.0 0.0 0.00 0.00 0.00 89 1015.3
20260509053040 52 360 0.0 0.0 0.00 0.00 0.00 89 1015.4
20260509052540 52 360 0.0 3.0 0.00 0.00 0.00 89 1015.2
20260509052037 52 360 0.0 4.0 0.00 0.00 0.00 89 1015.2
20260509051536 52 360 2.0 5.0 0.00 0.00 0.00 89 1014.7
20260509051038 52 360 3.0 5.0 0.00 0.00 0.00 89 1014.8
20260509050535 52 360 2.0 6.0 0.00 0.00 0.00 89 1014.8
20260509050018 52 360 2.0 4.0 0.00 0.00 0.00 88 1014.7
20260509045506 52 360 0.0 0.0 0.00 0.00 0.00 88 1014.7
20260509045105 52 360 0.0 0.0 0.00 0.00 0.00 88 1014.7
20260509044505 51 360 0.0 0.0 0.00 0.00 0.00 87 1014.8
20260509044006 52 360 0.0 0.0 0.00 0.00 0.00 87 1014.6
20260509043529 51 360 0.0 0.0 0.00 0.00 0.00 88 1014.7
20260509043003 51 360 0.0 3.0 0.00 0.00 0.00 88 1014.7
20260509042503 51 360 1.0 3.0 0.00 0.00 0.00 88 1014.7
20260509042004 51 360 0.0 0.0 0.00 0.00 0.00 87 1014.6
20260509041502 51 360 0.0 1.0 0.00 0.00 0.00 87 1014.7
20260509041100 51 360 0.0 1.0 0.00 0.00 0.00 87 1014.6
20260509040558 51 360 0.0 0.0 0.00 0.00 0.00 87 1014.6
20260509040058 51 360 0.0 0.0 0.00 0.00 0.00 86 1014.7
20260509035600 51 360 0.0 0.0 0.00 0.00 0.00 86 1014.8
20260509035058 52 360 0.0 0.0 0.00 0.00 0.00 86 1014.9
20260509034558 52 360 0.0 0.0 0.00 0.00 0.00 85 1015.0
20260509034057 52 208 0.0 0.0 0.00 0.00 0.00 85 1014.9
20260509033557 52 360 0.0 1.0 0.00 0.00 0.00 85 1014.9
20260509033057 52 360 0.0 2.0 0.00 0.00 0.00 85 1015.1
20260509032602 52 208 0.0 2.0 0.00 0.00 0.00 85 1015.0
20260509032056 52 360 0.0 0.0 0.00 0.00 0.00 85 1015.1
20260509031609 52 207 0.0 1.0 0.00 0.00 0.00 85 1015.1
20260509031101 53 360 0.0 1.0 0.00 0.00 0.00 84 1015.2
20260509030557 53 207 0.0 2.0 0.00 0.00 0.00 84 1015.1
20260509030059 53 360 1.0 2.0 0.00 0.00 0.00 84 1015.2
20260509025555 53 360 0.0 0.0 0.00 0.00 0.00 84 1015.2
20260509025055 53 360 0.0 1.0 0.00 0.00 0.00 84 1015.3
20260509024557 53 207 0.0 4.0 0.00 0.00 0.00 84 1015.3
20260509024056 53 360 1.0 4.0 0.00 0.00 0.00 84 1015.3
20260509023554 53 360 1.0 5.0 0.00 0.00 0.00 85 1015.2
20260509023108 53 360 1.0 5.0 0.00 0.00 0.00 84 1015.3
20260509022556 53 208 1.0 8.0 0.00 0.00 0.00 84 1015.3
20260509022058 53 360 3.0 8.0 0.00 0.00 0.00 84 1015.3
20260509021554 53 360 1.0 9.0 0.00 0.00 0.00 84 1015.2
20260509021058 53 360 3.0 10.0 0.00 0.00 0.00 83 1015.3
20260509020556 53 360 3.0 10.0 0.00 0.00 0.00 84 1015.2
20260509020056 53 360 5.0 10.0 0.00 0.00 0.00 83 1015.2
20260509015554 53 207 4.0 13.0 0.00 0.00 0.00 83 1015.1
20260509015054 53 360 8.0 13.0 0.00 0.00 0.00 83 1015.1
20260509014552 53 360 8.0 13.0 0.00 0.00 0.00 83 1015.1
20260509014052 53 360 4.0 10.0 0.00 0.00 0.00 83 1015.1
20260509013552 53 213 5.0 10.0 0.00 0.00 0.00 83 1015.1
20260509013053 53 360 4.0 7.0 0.00 0.00 0.00 83 1014.9
20260509012550 53 214 2.0 10.0 0.00 0.00 0.00 83 1014.9
20260509012051 53 360 3.0 10.0 0.00 0.00 0.00 83 1014.7
20260509011551 53 360 5.0 9.0 0.00 0.00 0.00 83 1014.7
20260509011050 53 360 4.0 9.0 0.00 0.00 0.00 84 1014.6
20260509010550 53 360 5.0 9.0 0.00 0.00 0.00 84 1014.4
20260509010050 53 360 4.0 8.0 0.00 0.00 0.00 84 1014.4
20260509005549 53 360 0.0 2.0 0.00 0.00 0.00 84 1014.3
20260509005053 53 360 0.0 2.0 0.00 0.00 0.00 84 1014.2
20260509004553 53 360 0.0 3.0 0.00 0.00 0.00 84 1014.3
20260509004048 53 360 0.0 5.0 0.00 0.00 0.00 84 1014.3
20260509003549 52 217 3.0 5.0 0.00 0.00 0.00 84 1014.2
20260509003053 53 360 1.0 5.0 0.00 0.00 0.00 85 1014.2
20260509002547 52 360 0.0 4.0 0.00 0.00 0.00 85 1014.1
20260509002047 52 360 0.0 5.0 0.00 0.00 0.00 85 1014.1
20260509001548 53 360 0.0 6.0 0.00 0.00 0.00 85 1014.1
20260509001048 53 360 3.0 6.0 0.00 0.00 0.00 85 1014.1
20260509000551 53 360 3.0 5.0 0.00 0.00 0.00 84 1014.0
20260509000047 53 360 3.0 8.0 0.00 0.00 0.00 84 1014.0
20260508235547 53 360 3.0 8.0 0.00 0.00 0.00 83 1014.0
20260508235049 53 217 1.0 4.0 0.00 0.00 0.00 82 1013.9
20260508234550 53 217 1.0 4.0 0.00 0.00 0.00 82 1013.6
20260508234046 54 217 1.0 4.0 0.00 0.00 0.00 82 1013.7
20260508233546 54 217 0.0 5.0 0.00 0.00 0.00 81 1013.7
20260508233053 54 217 2.0 5.0 0.00 0.00 0.00 81 1013.6
20260508232546 54 217 2.0 5.0 0.00 0.00 0.00 80 1013.4
20260508232050 54 217 2.0 7.0 0.00 0.00 0.00 80 1013.5
20260508231546 55 217 4.0 7.0 0.00 0.00 0.00 79 1013.5
20260508231046 55 217 1.0 4.0 0.00 0.00 0.00 79 1013.3
20260508230546 55 217 1.0 4.0 0.00 0.00 0.00 78 1013.1
20260508230116 55 217 1.0 6.0 0.00 0.00 0.00 78 1013.1
20260508225545 55 217 4.0 6.0 0.00 0.00 0.00 77 1013.2
20260508225048 55 217 3.0 7.0 0.00 0.00 0.00 77 1013.0
20260508224549 55 217 4.0 7.0 0.00 0.00 0.00 77 1013.1
20260508224047 56 217 1.0 3.0 0.00 0.00 0.00 77 1013.0
20260508223544 56 217 1.0 8.0 0.00 0.00 0.00 77 1013.0
20260508223044 56 217 2.0 8.0 0.00 0.00 0.00 77 1013.0
20260508222544 56 217 3.0 11.0 0.00 0.00 0.00 77 1013.1
20260508222046 56 218 3.0 11.0 0.00 0.00 0.00 76 1013.0
20260508221543 56 209 5.0 8.0 0.00 0.00 0.00 75 1012.9
20260508221043 56 206 2.0 7.0 0.00 0.00 0.00 76 1012.9
20260508220543 56 206 3.0 10.0 0.00 0.00 0.00 74 1012.9
20260508220111 56 207 3.0 13.0 0.00 0.00 0.00 73 1013.0
20260508215543 56 206 4.0 14.0 0.00 0.00 0.00 73 1013.0
20260508215043 56 214 4.0 11.0 0.00 0.00 0.00 74 1013.0
20260508214543 56 213 7.0 11.0 0.00 0.00 0.00 74 1013.1
20260508214043 56 213 2.0 11.0 0.00 0.00 0.00 74 1013.1
20260508213546 56 219 3.0 10.0 0.00 0.00 0.00 74 1013.1
20260508213042 55 215 5.0 10.0 0.00 0.00 0.00 75 1013.2
20260508212543 56 209 5.0 11.0 0.00 0.00 0.00 74 1013.2
20260508212042 56 245 3.0 15.0 0.00 0.00 0.00 75 1013.1
20260508211547 55 217 4.0 15.0 0.00 0.00 0.00 75 1013.1
20260508211046 55 198 7.0 15.0 0.00 0.00 0.00 75 1013.2
20260508210541 55 178 11.0 15.0 0.00 0.00 0.00 74 1013.3
20260508210041 55 220 6.0 13.0 0.00 0.00 0.00 76 1013.3
20260508205642 54 203 8.0 15.0 0.00 0.00 0.00 78 1013.3
20260508205040 54 198 10.0 14.0 0.00 0.00 0.00 77 1013.3
20260508204543 54 209 7.0 13.0 0.00 0.00 0.00 77 1013.3
20260508204040 54 217 7.0 20.0 0.00 0.00 0.00 76 1013.5
20260508203540 54 236 4.0 20.0 0.00 0.00 0.00 75 1013.4
20260508203045 54 202 8.0 21.0 0.00 0.00 0.00 76 1013.3
20260508202540 54 196 9.0 23.0 0.00 0.00 0.00 76 1013.1
20260508202040 55 204 17.0 25.0 0.00 0.00 0.00 74 1012.9
20260508201540 55 205 14.0 21.0 0.00 0.00 0.00 73 1012.9
20260508201039 56 175 12.0 20.0 0.00 0.00 0.00 71 1012.8
20260508200540 56 219 12.0 23.0 0.00 0.00 0.00 71 1012.8
20260508200042 57 207 10.0 23.0 0.00 0.00 0.00 69 1012.8
20260508195539 57 198 11.0 17.0 0.00 0.00 0.00 70 1012.7
20260508195038 57 214 10.0 17.0 0.00 0.00 0.00 71 1012.8
20260508194540 57 226 7.0 14.0 0.00 0.00 0.00 72 1012.9
20260508194039 57 209 6.0 15.0 0.00 0.00 0.00 73 1013.0
20260508193544 56 165 9.0 19.0 0.00 0.00 0.00 74 1013.1
20260508193038 55 201 13.0 23.0 0.00 0.00 0.00 74 1013.2
20260508192537 55 205 15.0 23.0 0.00 0.00 0.00 72 1013.1
20260508192040 55 196 11.0 21.0 0.00 0.00 0.00 71 1013.1
20260508191538 55 189 14.0 22.0 0.00 0.00 0.00 70 1013.2
20260508191038 56 189 13.0 27.0 0.00 0.00 0.00 68 1013.0
20260508190537 56 196 15.0 27.0 0.00 0.00 0.00 66 1013.1
20260508190042 57 191 11.0 23.0 0.00 0.00 0.00 66 1013.1
20260508185537 57 199 12.0 23.0 0.00 0.00 0.00 64 1013.0
20260508185037 59 187 16.0 21.0 0.00 0.00 0.00 57 1012.9
20260508184545 61 237 16.0 23.0 0.00 0.00 0.00 45 1012.9
20260508184038 61 243 15.0 24.0 0.00 0.00 0.00 46 1013.1
20260508183538 61 254 15.0 24.0 0.00 0.00 0.00 43 1013.2
20260508183036 62 276 9.0 24.0 0.00 0.00 0.00 42 1013.3
20260508182535 63 254 11.0 21.0 0.00 0.00 0.00 40 1013.3
20260508182033 63 242 13.0 21.0 0.00 0.00 0.00 42 1013.3
20260508181543 62 294 10.0 28.0 0.00 0.00 0.00 42 1013.3
20260508181033 62 270 15.0 31.0 0.00 0.00 0.00 42 1013.4
20260508180535 62 250 14.0 31.0 0.00 0.00 0.00 43 1013.1
20260508180032 61 242 16.0 27.0 0.00 0.00 0.00 44 1013.3
20260508175532 62 246 16.0 26.0 0.00 0.00 0.00 43 1013.3
20260508175031 61 260 10.0 27.0 0.00 0.00 0.00 45 1013.3
20260508174536 61 244 16.0 27.0 0.00 0.00 0.00 47 1013.3
20260508174032 61 244 16.0 24.0 0.00 0.00 0.00 46 1013.3
20260508173531 62 207 11.0 25.0 0.00 0.00 0.00 45 1013.3
20260508173030 61 242 16.0 24.0 0.00 0.00 0.00 45 1013.1
20260508172529 62 241 10.0 23.0 0.00 0.00 0.00 45 1013.4
20260508172029 62 236 12.0 28.0 0.00 0.00 0.00 45 1013.3
20260508171528 61 254 18.0 28.0 0.00 0.00 0.00 45 1013.5
20260508171026 61 254 18.0 28.0 0.00 0.00 0.00 48 1013.5
20260508170527 60 270 20.0 28.0 0.00 0.00 0.00 48 1013.6
20260508170026 60 264 17.0 27.0 0.00 0.00 0.00 46 1013.4
20260508165524 60 219 16.0 25.0 0.00 0.00 0.00 48 1013.8
20260508165023 60 234 18.0 25.0 0.00 0.00 0.00 47 1013.9
20260508164522 59 238 12.0 21.0 0.00 0.00 0.00 53 1013.9
20260508164022 59 252 12.0 21.0 0.00 0.00 0.00 53 1013.9
20260508163520 59 213 13.0 22.0 0.00 0.00 0.00 54 1013.7
20260508163033 58 236 13.0 22.0 0.00 0.00 0.00 56 1013.6
20260508162521 58 237 15.0 26.0 0.00 0.00 0.00 58 1013.6
20260508162021 58 251 15.0 26.0 0.00 0.00 0.00 59 1013.8
20260508161528 57 246 12.0 24.0 0.00 0.00 0.00 63 1013.8
20260508161022 57 203 12.0 24.0 0.00 0.00 0.00 61 1013.8
20260508160519 58 223 14.0 23.0 0.00 0.00 0.00 59 1013.7
20260508160018 57 223 12.0 23.0 0.00 0.00 0.00 61 1013.7
20260508155518 57 205 8.0 18.0 0.00 0.00 0.00 60 1013.7
20260508155019 57 255 11.0 18.0 0.00 0.00 0.00 61 1013.8
20260508154519 58 230 9.0 19.0 0.00 0.00 0.00 60 1013.8
20260508154018 58 250 12.0 20.0 0.00 0.00 0.00 61 1013.9
20260508153521 57 250 9.0 20.0 0.00 0.00 0.00 63 1013.8
20260508153020 57 252 8.0 18.0 0.00 0.00 0.00 64 1013.9
20260508152518 56 169 11.0 20.0 0.00 0.00 0.00 64 1013.9
20260508152018 57 236 12.0 20.0 0.00 0.00 0.00 64 1013.9
20260508151518 56 217 9.0 18.0 0.00 0.00 0.00 67 1013.9
20260508151021 56 213 10.0 21.0 0.00 0.00 0.00 66 1013.9
20260508150518 57 233 6.0 15.0 0.00 0.00 0.00 65 1014.0
20260508150023 56 238 7.0 17.0 0.00 0.00 0.00 65 1014.1
20260508145517 56 240 9.0 18.0 0.00 0.00 0.00 64 1014.0
20260508145019 56 246 12.0 18.0 0.00 0.00 0.00 64 1014.2
20260508144517 56 259 11.0 17.0 0.00 0.00 0.00 64 1014.2
20260508144017 57 288 8.0 13.0 0.00 0.00 0.00 61 1014.3
20260508143517 57 289 5.0 13.0 0.00 0.00 0.00 63 1014.2
20260508143023 59 292 6.0 17.0 0.00 0.00 0.00 47 1014.4
20260508142519 59 292 8.0 17.0 0.00 0.00 0.00 41 1014.5
20260508142020 58 298 5.0 20.0 0.00 0.00 0.00 45 1014.3
20260508141514 58 299 11.0 20.0 0.00 0.00 0.00 45 1014.2
20260508141013 58 297 7.0 13.0 0.00 0.00 0.00 46 1014.3
20260508140512 58 298 7.0 11.0 0.00 0.00 0.00 47 1014.2
20260508140021 57 299 4.0 11.0 0.00 0.00 0.00 49 1014.3